Regional Weather Roundup
Issued by NWS

Home | Current Version | Previous Version | Graphics & Text | Print | Product List | Glossary On
Versions: 1 2 3 4 5 6 7 8 9 10 11 12 13 14 15 16 17 18 19 20 21 22 23 24 25 26 27
000
ASUS45 KBOI 040210
RWRID

IDAHO REGIONAL WEATHER ROUNDUP
NATIONAL WEATHER SERVICE BOISE ID
700 PM MST SAT DEC 03 2016

NOTE: "FAIR" INDICATES FEW OR NO CLOUDS BELOW 12000 FEET
WITH NO SIGNIFICANT WEATHER AND/OR OBSTRUCTIONS TO VISIBILITY

IDZ012-014-040300-
SOUTHWEST IDAHO


CITY           SKY/WX    TMP DP  RH WIND       PRES   REMARKS
BOISE          CLEAR     36  28  73 S3        30.22S
CALDWELL       CLEAR     38  28  67 SW3       30.24S
MOUNTAIN HOME  CLEAR     31  25  77 CALM      30.22R
$$

IDZ016-017-040300-
SOUTHCENTRAL IDAHO


CITY           SKY/WX    TMP DP  RH WIND       PRES   REMARKS
BURLEY         CLEAR     34  26  72 W16       30.18F WCI  24
JEROME         CLOUDY    34  26  72 SW6       30.20F WCI  29
TWIN FALLS     CLOUDY    35  25  66 SW7       30.22R WCI  29
$$

IDZ019>023-040300-
SOUTHEAST IDAHO


CITY           SKY/WX    TMP DP  RH WIND       PRES   REMARKS
IDAHO FALLS    CLOUDY    26  21  81 N3        30.18R
POCATELLO      CLOUDY    35  27  72 SW14      30.20R WCI  26
REXBURG        CLOUDY    25  21  85 NE5       30.17R WCI  19
$$

IDZ006-010-011-018-031-032-040300-
CENTRAL IDAHO MOUNTAINS


CITY           SKY/WX    TMP DP  RH WIND       PRES   REMARKS
MCCALL         CLOUDY    27  23  85 CALM      30.15R
HAILEY         CLEAR     25  21  86 CALM      30.14R
STANLEY          N/A     23  14  68 S8        30.12F WCI  14
SALMON         CLOUDY    32  21  64 S6        30.09S WCI  26
CHALLIS        CLEAR     30  16  56 SW7       30.09F WCI  23
$$

IDZ002-004-006-007-026-040300-
NORTHERN IDAHO


CITY           SKY/WX    TMP DP  RH WIND       PRES   REMARKS
LEWISTON       CLOUDY    45  32  60 SW9       30.15F
LOWELL           N/A     37  34  89 CALM      30.23S
COEUR D`ALENE  CLOUDY    38  32  79 CALM      30.09F
MULLAN PASS    LGT SNOW  24  22  91 CALM      29.96F FOG
$$




USA.gov is the U.S. government's official web portal to all federal, state and local government web resources and services.